Showing default

INMARSAT 6-F2, 55683

Orbit data source: Space-Track

INMARSAT 6-F2, 55683 is a payload satellite owned by INMARSAT-Ltd (UK) in HEO that was launched on Sat, 18 Feb 2023 UTC via an FALCON 9 launch vehicle from the Air Force Eastern Test Range (AFETR). Payload-class satellites include a variety of spacecraft equipped with specific instruments for various scientific and technological missions. These include communications satellites like Starlink; space stations such as the ISS; scientific satellites like the Hubble; Earth observation satellites from companies like Planet Labs, Umbra, and HawkEye 360; GPS; miniature CubeSats for education and research; and military/defense satellites.

Loading next visibility...
Identifier
55683, 2023-022A
Orbit
HEO
Country
Flag of IMIM
Related business
Manufacturer
Airbus (UK)
Mission
Non-operational Commercial Communications
Bus & Motor
EUROSTAR 3000EOR, SPT140D
Mass
5,470 kg wet, 4,000 kg dry
Launch date (UTC)
2023-02-18 (3 years ago)
Launch vehicle
FALCON 9
Launch site
Air Force Eastern Test Range (AFETR)
Object type
Payload
Rocket body
Debris
Shape & HBR
Box + 1 Dish + 2 Pan, 23.5 m
Radar Cross Section
55.453 m², Large (>1 m²)

Expand to show TLE details & history
Last TLE update: 2 days ago

TLE from 2 days ago
0 INMARSAT 6-F2
1 55683U 23022A   26171.35608845 -.00000023  00000-0  00000+0 0  9997
2 55683   5.5397  36.5323 3074903 215.3192 339.1872  1.00953994 10586
Epoch: 2026-06-20T08:32Z
TLE epoch observation values (Epoch: 2026-06-20T08:32:46.042Z)
Latitude
0.44421°
Longitude
175.159°
Altitude
24,349.421 km
Speed
4.056 km/s
True Right ascension
14h 07m 41s
True Declination
0° 26' 37"
Sunlit
Object was in daylight at epoch
Visualization orbit readout
Latitude
Unknown
Longitude
Unknown
Altitude
Unknown
Speed
Unknown
Apparent Right ascension
Unknown
Apparent Declination
Unknown
Sunlit
N/A
Visualization observer readout
Local Sidereal Time
21:40:07
Azimuth
Unknown
Elevation
Unknown
Doppler factor
Unknown
Orbital elements
Apogee altitude
48,504.799 km
Perigee altitude
22,690.504 km
Semi-major axis
41,975.788 km
Eccentricity
0.30749
Inclination
5.5397°
RAAN
36.5323°
Arg. of periapsis
215.3192°
True anomaly
320.24459°
Mean anomaly
339.1872°
Eccentric anomaly
330.51602°
Mean motion
0.25237 °/min
Orbital period
1,426.45 mins
BSTAR
0
Loading maneuver chart data...
Computing Atmospheric mass density...
Loading historical data...
Loading historical data...
Loading historical data...
Loading historical data...
Loading historical data...
Loading historical data...
Loading historical data...
Other satellites on launch #22 in the year 2023 (2023-02-18 UTC)

Documentation

Showing up to 5 results
|